Location: Guferjoch
(46.7462°N, 8.4506°E)
Time: 00:29:57
(UTC+00:00)

Meteor 1-23 Rocket - Pass Details

Date: 14 July 2020
Orbit: 838 x 887 km, 81.3° (Epoch: 03 August)

Event Time Altitude Azimuth Distance (km) Brightness Sun altitude
Rises 02:25:31 0° 345° (NNW) 3,461 7.9 -11.2°
Reaches altitude 10° 02:27:59 10° 342° (NNW) 2,526 7.1 -11.0°
Maximum altitude 02:33:36 58° 265° (W) 1,018 4.4 -10.3°
Drops below altitude 10° 02:39:14 10° 187° (S) 2,535 6.2 -9.7°
Enters shadow 02:40:44 - 185° (S) 3,098 6.7 -9.5°
